Stündliche Wetter Juliopol

Heute, 4 März, Donnerstag

Zeit Temperatur Niederschläge Wind Luftdruck Luftfeuchtigkeit
00:00 +3°C° 0 mm 4 m/S 756 mmHg 83%
01:00 +3°C° 0 mm 4 m/S 756 mmHg 84%
02:00 +3°C° 0 mm 4 m/S 755 mmHg 86%
03:00 +3°C° 0 mm 4 m/S 754 mmHg 88%
04:00 +1°C° 0 mm 4 m/S 754 mmHg 90%
05:00 +2°C° 0 mm 5 m/S 754 mmHg 91%
06:00 +2°C° 0 mm 5 m/S 753 mmHg 92%
07:00 +3°C° 0 mm 5 m/S 753 mmHg 93%
08:00 +3°C° 0 mm 6 m/S 753 mmHg 88%
09:00 +4°C° 0 mm 6 m/S 753 mmHg 84%
10:00 +4°C° 0 mm 6 m/S 753 mmHg 80%
11:00 +4°C° 0 mm 6 m/S 753 mmHg 77%
12:00 +4°C° 0 mm 6 m/S 753 mmHg 73%
13:00 +5°C° 0 mm 6 m/S 752 mmHg 70%
14:00 +4°C° 0 mm 6 m/S 752 mmHg 71%
15:00 +3°C° 0 mm 5 m/S 752 mmHg 72%
16:00 +3°C° 0 mm 5 m/S 752 mmHg 73%
17:00 +2°C° 0 mm 5 m/S 752 mmHg 76%
18:00 +3°C° 0 mm 4 m/S 752 mmHg 78%
19:00 +1°C° 0 mm 4 m/S 752 mmHg 81%
20:00 0°C° 0 mm 4 m/S 752 mmHg 84%
21:00 0°C° 0 mm 4 m/S 753 mmHg 88%
22:00 -1°C° 0 mm 4 m/S 753 mmHg 91%
23:00 -1°C° 0 mm 4 m/S 753 mmHg 87%

Morgen, 5 März, Freitag

Zeit Temperatur Niederschläge Wind Luftdruck Luftfeuchtigkeit
00:00 -2°C° 0 mm 4 m/S 754 mmHg 83%
01:00 -2°C° 0 mm 4 m/S 754 mmHg 79%
02:00 -3°C° 0 mm 4 m/S 754 mmHg 80%
03:00 -3°C° 0 mm 4 m/S 755 mmHg 81%
04:00 -3°C° 0 mm 4 m/S 755 mmHg 81%
05:00 -3°C° 0 mm 4 m/S 755 mmHg 81%
06:00 -3°C° 0 mm 4 m/S 756 mmHg 80%
07:00 -3°C° 0 mm 4 m/S 757 mmHg 80%
08:00 -2°C° 0 mm 4 m/S 757 mmHg 73%
09:00 -1°C° 0 mm 4 m/S 757 mmHg 66%
10:00 0°C° 0 mm 4 m/S 758 mmHg 59%
11:00 0°C° 0.1 mm 4 m/S 758 mmHg 55%
12:00 +1°C° 0.1 mm 4 m/S 758 mmHg 51%
13:00 +3°C° 0.1 mm 4 m/S 758 mmHg 47%
14:00 +1°C° 0.1 mm 4 m/S 759 mmHg 47%
15:00 +1°C° 0.1 mm 4 m/S 759 mmHg 48%
16:00 +1°C° 0.1 mm 4 m/S 759 mmHg 48%
17:00 +1°C° 0 mm 3 m/S 760 mmHg 53%
18:00 0°C° 0 mm 3 m/S 760 mmHg 59%
19:00 -1°C° 0 mm 2 m/S 761 mmHg 64%
20:00 -1°C° 0 mm 2 m/S 761 mmHg 65%
21:00 -2°C° 0 mm 2 m/S 762 mmHg 67%
22:00 -2°C° 0 mm 2 m/S 762 mmHg 68%
23:00 -2°C° 0 mm 2 m/S 763 mmHg 70%

übermorgen, 6 März, Samstag

Zeit Temperatur Niederschläge Wind Luftdruck Luftfeuchtigkeit
00:00 -2°C° 0 mm 2 m/S 763 mmHg 72%
01:00 -3°C° 0 mm 2 m/S 763 mmHg 73%
02:00 -3°C° 0 mm 2 m/S 763 mmHg 74%
03:00 -4°C° 0 mm 3 m/S 764 mmHg 75%
04:00 -4°C° 0 mm 3 m/S 764 mmHg 75%
05:00 -4°C° 0 mm 3 m/S 764 mmHg 74%
06:00 -4°C° 0 mm 3 m/S 764 mmHg 73%
07:00 -4°C° 0 mm 3 m/S 765 mmHg 72%
08:00 -1°C° 0 mm 3 m/S 765 mmHg 65%
09:00 -1°C° 0 mm 4 m/S 765 mmHg 57%
10:00 0°C° 0 mm 4 m/S 765 mmHg 50%
11:00 0°C° 0 mm 4 m/S 765 mmHg 47%
12:00 +1°C° 0 mm 5 m/S 765 mmHg 45%
13:00 +1°C° 0 mm 5 m/S 765 mmHg 42%
14:00 +1°C° 0 mm 5 m/S 764 mmHg 44%
15:00 +1°C° 0 mm 5 m/S 764 mmHg 45%
16:00 +1°C° 0 mm 5 m/S 764 mmHg 46%
17:00 0°C° 0 mm 5 m/S 763 mmHg 51%
18:00 -1°C° 0 mm 5 m/S 763 mmHg 55%
19:00 -2°C° 0 mm 4 m/S 763 mmHg 59%
20:00 -2°C° 0 mm 5 m/S 762 mmHg 57%
21:00 -3°C° 0 mm 6 m/S 762 mmHg 55%
22:00 -3°C° 0 mm 6 m/S 762 mmHg 53%
23:00 -3°C° 0 mm 6 m/S 761 mmHg 56%

7 März, Sonntag

Zeit Temperatur Niederschläge Wind Luftdruck Luftfeuchtigkeit
00:00 -3°C° 0 mm 7 m/S 761 mmHg 60%
01:00 -3°C° 0 mm 7 m/S 760 mmHg 63%
02:00 -3°C° 0 mm 7 m/S 760 mmHg 68%
03:00 -3°C° 0 mm 7 m/S 759 mmHg 72%
04:00 -3°C° 0 mm 7 m/S 758 mmHg 76%
05:00 -3°C° 0 mm 7 m/S 758 mmHg 76%
06:00 -2°C° 0 mm 8 m/S 758 mmHg 76%
07:00 -2°C° 0 mm 8 m/S 758 mmHg 77%
08:00 -2°C° 0 mm 8 m/S 757 mmHg 77%
09:00 -2°C° 0 mm 8 m/S 757 mmHg 78%
10:00 -2°C° 0 mm 8 m/S 757 mmHg 78%
11:00 -2°C° 0 mm 8 m/S 757 mmHg 76%
12:00 -2°C° 0 mm 8 m/S 757 mmHg 73%
13:00 -1°C° 0 mm 8 m/S 756 mmHg 70%
14:00 -1°C° 0 mm 8 m/S 756 mmHg 70%
15:00 -2°C° 0 mm 8 m/S 756 mmHg 70%
16:00 -2°C° 0 mm 8 m/S 755 mmHg 70%
17:00 -2°C° 0 mm 7 m/S 755 mmHg 72%
18:00 -3°C° 0 mm 6 m/S 755 mmHg 75%
19:00 -2°C° 0 mm 5 m/S 756 mmHg 78%
20:00 -2°C° 0 mm 5 m/S 756 mmHg 80%
21:00 -2°C° 0 mm 5 m/S 756 mmHg 81%
22:00 -2°C° 0 mm 5 m/S 756 mmHg 83%
23:00 -3°C° 0.2 mm 4 m/S 756 mmHg 85%

8 März, Montag

Zeit Temperatur Niederschläge Wind Luftdruck Luftfeuchtigkeit
00:00 -2°C° 0.2 mm 3 m/S 756 mmHg 87%
01:00 -2°C° 0.2 mm 2 m/S 756 mmHg 88%
02:00 -3°C° 0 mm 2 m/S 756 mmHg 84%
03:00 -1°C° 0 mm 1 m/S 756 mmHg 80%
04:00 -1°C° 0 mm 1 m/S 756 mmHg 76%
05:00 -1°C° 0 mm 1 m/S 757 mmHg 75%
06:00 -3°C° 0 mm 2 m/S 757 mmHg 74%
07:00 -3°C° 0 mm 2 m/S 758 mmHg 73%
08:00 -2°C° 0 mm 2 m/S 758 mmHg 66%
09:00 -1°C° 0 mm 3 m/S 758 mmHg 59%
10:00 0°C° 0 mm 3 m/S 759 mmHg 52%
11:00 +1°C° 0 mm 3 m/S 759 mmHg 51%
12:00 +1°C° 0 mm 3 m/S 759 mmHg 49%
13:00 +1°C° 0 mm 3 m/S 759 mmHg 47%
14:00 +1°C° 0 mm 3 m/S 759 mmHg 50%
15:00 +1°C° 0 mm 3 m/S 759 mmHg 53%
16:00 +1°C° 0 mm 3 m/S 759 mmHg 56%
17:00 -1°C° 0 mm 3 m/S 760 mmHg 62%
18:00 -2°C° 0 mm 3 m/S 760 mmHg 68%
19:00 -3°C° 0 mm 2 m/S 761 mmHg 75%
20:00 -3°C° 0 mm 2 m/S 761 mmHg 75%
21:00 -4°C° 0 mm 2 m/S 762 mmHg 76%
22:00 -4°C° 0 mm 2 m/S 762 mmHg 76%
23:00 -4°C° 0 mm 2 m/S 762 mmHg 74%

9 März, Dienstag

Zeit Temperatur Niederschläge Wind Luftdruck Luftfeuchtigkeit
00:00 -4°C° 0 mm 2 m/S 762 mmHg 73%
01:00 -4°C° 0 mm 2 m/S 762 mmHg 71%
02:00 -4°C° 0 mm 2 m/S 762 mmHg 69%
03:00 -4°C° 0 mm 2 m/S 762 mmHg 67%
04:00 -4°C° 0 mm 2 m/S 762 mmHg 65%
05:00 -4°C° 0 mm 2 m/S 762 mmHg 63%
06:00 -4°C° 0 mm 2 m/S 762 mmHg 61%
07:00 -4°C° 0 mm 2 m/S 762 mmHg 59%
08:00 -4°C° 0 mm 3 m/S 762 mmHg 54%
09:00 -2°C° 0 mm 3 m/S 763 mmHg 50%
10:00 -1°C° 0 mm 3 m/S 763 mmHg 45%
11:00 -1°C° 0 mm 3 m/S 763 mmHg 42%
12:00 0°C° 0 mm 3 m/S 762 mmHg 39%
13:00 0°C° 0 mm 3 m/S 762 mmHg 35%
14:00 0°C° 0 mm 3 m/S 762 mmHg 36%
15:00 0°C° 0 mm 3 m/S 762 mmHg 36%
16:00 0°C° 0 mm 3 m/S 761 mmHg 37%
17:00 -1°C° 0 mm 3 m/S 762 mmHg 40%
18:00 -2°C° 0 mm 3 m/S 762 mmHg 44%
19:00 -4°C° 0 mm 3 m/S 762 mmHg 48%
20:00 -5°C° 0 mm 3 m/S 762 mmHg 48%
21:00 -5°C° 0 mm 3 m/S 762 mmHg 48%
22:00 -5°C° 0 mm 3 m/S 762 mmHg 47%
23:00 -5°C° 0 mm 3 m/S 762 mmHg 48%
Mehr zeigen

Wir brauchen deine Erlaubnis

Meteoprog und unser Service Anbieter werden persönliche Daten aufbewahren, so wie Cookies, Geräte Bezeichnung oder ähnliche Technologien von deinem Gerät und Prozess, so wie Persönliche Daten Inhalte und Werbungen, genauso wie social Media und den Verkehr zu analysieren.

  • Aufbewahrung und/oder Zugang zu deiner Geräte Informationen.

    Cookies, Geräte Bezeichnung oder andere Informationen, können aufbewahrt oder Zugang zu deinem Gerät erhalten, für den Grund, der oben angegeben wird.

  • Personalisierte Werbung und Inhalte, Messungen, Einblick in das Publikum und Produkt Entwicklung.

    Werbungen und Inhalte können personalisiert werden, basierend auf ein Profil. Mehr Daten können besser personalisierte Werbungen und Inhalte hinzufügen. Werbung und Inhalte können gezeigt und gemessen werden. Einblicke über das Publikum, welche die Werbung gesehen haben und den Inhalt, können abgeleitet werden. So wie Daten können genutzt werden, um es zu verbessern oder die Benutzer Erfahrung zu verbessern das System und die Software.

Wenn du “Ich stimme zu” klickst, erlaubst du uns, die Cookies zu benutzen die Geräte Bezeichnung, den Web oder ähnliche Technologien zu benutzen. Deine Settings, können in deinem Gerät bei deinem Browser geändert werden.

Für den bestimmten Zweck, berechtigten Interessen beruhen darauf, mehr als auf den Inhalt. Du kannst mehr darüber in unseren Privaten und Cookie Politik lesen.